Time,TemperatureF,DewpointF,PressureIn,WindDirection,WindDirectionDegrees,WindSpeedMPH,WindSpeedGustMPH,Humidity,HourlyPrecipIn,Conditions,Clouds,dailyrainin,SoftwareType,DateUTC
2013-03-14 00:00:00,38.8,16.0,30.14,WNW,295,0.0,5.0,39,0.00,,,0.00,weatherlink.com 1.10,2013-03-14 04:00:00,
2013-03-14 00:15:00,38.5,15.0,30.14,ESE,114,0.0,8.0,38,0.00,,,0.00,weatherlink.com 1.10,2013-03-14 04:15:00,
2013-03-14 00:29:00,38.0,15.0,30.14,North,9,2.0,5.0,39,0.00,,,0.00,weatherlink.com 1.10,2013-03-14 04:29:00,
2013-03-14 00:45:00,37.9,15.0,30.15,NW,310,0.0,7.0,39,0.00,,,0.00,weatherlink.com 1.10,2013-03-14 04:45:00,
2013-03-14 01:00:00,37.6,15.0,30.16,North,11,0.0,3.0,40,0.00,,,0.00,weatherlink.com 1.10,2013-03-14 05:00:00,
2013-03-14 01:15:00,37.2,14.0,30.16,West,276,0.0,11.0,39,0.00,,,0.00,weatherlink.com 1.10,2013-03-14 05:15:00,
2013-03-14 01:30:00,36.8,14.0,30.16,East,88,2.0,8.0,40,0.00,,,0.00,weatherlink.com 1.10,2013-03-14 05:30:00,
2013-03-14 01:45:00,36.6,15.0,30.16,NE,46,2.0,11.0,41,0.00,,,0.00,weatherlink.com 1.10,2013-03-14 05:45:00,
2013-03-14 02:00:00,36.2,14.0,30.16,NW,321,0.0,5.0,41,0.00,,,0.00,weatherlink.com 1.10,2013-03-14 06:00:00,
2013-03-14 02:15:00,35.9,15.0,30.16,WNW,294,0.0,4.0,43,0.00,,,0.00,weatherlink.com 1.10,2013-03-14 06:15:00,
2013-03-14 02:30:00,35.5,15.0,30.16,ENE,78,0.0,3.0,44,0.00,,,0.00,weatherlink.com 1.10,2013-03-14 06:30:00,
2013-03-14 02:45:00,34.9,16.0,30.17,East,80,0.0,4.0,47,0.00,,,0.00,weatherlink.com 1.10,2013-03-14 06:45:00,
2013-03-14 03:00:00,34.4,16.0,30.18,NNE,17,0.0,6.0,47,0.00,,,0.00,weatherlink.com 1.10,2013-03-14 07:00:00,
2013-03-14 03:15:00,34.0,16.0,30.18,NNE,23,0.0,4.0,47,0.00,,,0.00,weatherlink.com 1.10,2013-03-14 07:15:00,
2013-03-14 03:30:00,33.5,16.0,30.19,NW,316,0.0,3.0,49,0.00,,,0.00,weatherlink.com 1.10,2013-03-14 07:30:00,
2013-03-14 03:45:00,33.2,15.0,30.19,NNE,33,0.0,3.0,48,0.00,,,0.00,weatherlink.com 1.10,2013-03-14 07:45:00,
2013-03-14 04:00:00,32.9,15.0,30.19,WNW,282,0.0,2.0,48,0.00,,,0.00,weatherlink.com 1.10,2013-03-14 08:00:00,
2013-03-14 04:15:00,32.9,15.0,30.19,East,82,0.0,6.0,47,0.00,,,0.00,weatherlink.com 1.10,2013-03-14 08:15:00,
2013-03-14 04:30:00,32.7,14.0,30.19,North,349,0.0,2.0,47,0.00,,,0.00,weatherlink.com 1.10,2013-03-14 08:30:00,
2013-03-14 04:45:00,32.2,15.0,30.19,SSW,205,0.0,1.0,49,0.00,,,0.00,weatherlink.com 1.10,2013-03-14 08:45:00,
2013-03-14 05:00:00,31.8,15.0,30.19,NE,47,0.0,1.0,50,0.00,,,0.00,weatherlink.com 1.10,2013-03-14 09:00:00,
2013-03-14 05:16:00,31.2,15.0,30.21,NE,47,0.0,0.0,52,0.00,,,0.00,weatherlink.com 1.10,2013-03-14 09:16:00,
2013-03-14 05:31:00,30.4,15.0,30.21,NE,47,0.0,0.0,53,0.00,,,0.00,weatherlink.com 1.10,2013-03-14 09:31:00,
2013-03-14 05:46:00,29.7,16.0,30.21,NE,48,0.0,1.0,57,0.00,,,0.00,weatherlink.com 1.10,2013-03-14 09:46:00,
2013-03-14 06:01:00,29.3,17.0,30.21,NE,48,0.0,0.0,60,0.00,,,0.00,weatherlink.com 1.10,2013-03-14 10:01:00,
2013-03-14 06:16:00,29.4,17.0,30.22,NNW,327,0.0,1.0,60,0.00,,,0.00,weatherlink.com 1.10,2013-03-14 10:16:00,
2013-03-14 06:46:00,30.3,15.0,30.23,WSW,241,1.0,2.0,53,0.00,,,0.00,weatherlink.com 1.10,2013-03-14 10:46:00,
2013-03-14 07:01:00,30.9,15.0,30.23,NW,311,0.0,1.0,52,0.00,,,0.00,weatherlink.com 1.10,2013-03-14 11:01:00,
2013-03-14 07:31:00,31.2,14.0,30.24,West,271,0.0,3.0,50,0.00,,,0.00,weatherlink.com 1.10,2013-03-14 11:31:00,
2013-03-14 07:46:00,31.2,14.0,30.25,West,273,0.0,3.0,50,0.00,,,0.00,weatherlink.com 1.10,2013-03-14 11:46:00,
2013-03-14 09:31:00,36.0,15.0,30.27,NNE,18,2.0,5.0,42,0.00,,,0.00,weatherlink.com 1.10,2013-03-14 13:31:00,
2013-03-14 09:46:00,36.0,14.0,30.28,West,271,1.0,7.0,41,0.00,,,0.00,weatherlink.com 1.10,2013-03-14 13:46:00,
2013-03-14 10:01:00,37.5,14.0,30.28,SW,224,0.0,4.0,39,0.00,,,0.00,weatherlink.com 1.10,2013-03-14 14:01:00,
2013-03-14 10:16:00,38.2,14.0,30.27,North,11,4.0,9.0,37,0.00,,,0.00,weatherlink.com 1.10,2013-03-14 14:16:00,
2013-03-14 10:31:00,38.5,14.0,30.28,WNW,290,3.0,5.0,36,0.00,,,0.00,weatherlink.com 1.10,2013-03-14 14:31:00,
2013-03-14 10:46:00,39.3,14.0,30.29,West,272,3.0,5.0,36,0.00,,,0.00,weatherlink.com 1.10,2013-03-14 14:46:00,
2013-03-14 11:01:00,40.2,14.0,30.28,North,355,1.0,4.0,35,0.00,,,0.00,weatherlink.com 1.10,2013-03-14 15:01:00,
2013-03-14 11:16:00,41.6,14.0,30.27,East,101,1.0,7.0,32,0.00,,,0.00,weatherlink.com 1.10,2013-03-14 15:16:00,
2013-03-14 11:31:00,41.3,13.0,30.27,WSW,257,0.0,6.0,32,0.00,,,0.00,weatherlink.com 1.10,2013-03-14 15:31:00,
2013-03-14 11:46:00,42.2,13.0,30.27,ESE,107,0.0,5.0,30,0.00,,,0.00,weatherlink.com 1.10,2013-03-14 15:46:00,
2013-03-14 12:01:00,43.3,12.0,30.27,NNW,329,1.0,5.0,28,0.00,,,0.00,weatherlink.com 1.10,2013-03-14 16:01:00,
2013-03-14 12:16:00,44.5,15.0,30.27,NNE,25,1.0,3.0,30,0.00,,,0.00,weatherlink.com 1.10,2013-03-14 16:16:00,
2013-03-14 12:31:00,44.8,13.0,30.27,NNE,31,1.0,7.0,28,0.00,,,0.00,weatherlink.com 1.10,2013-03-14 16:31:00,
2013-03-14 12:46:00,45.2,13.0,30.26,East,88,0.0,5.0,27,0.00,,,0.00,weatherlink.com 1.10,2013-03-14 16:46:00,
2013-03-14 13:01:00,46.5,14.0,30.25,West,273,2.0,4.0,27,0.00,,,0.00,weatherlink.com 1.10,2013-03-14 17:01:00,
2013-03-14 13:31:00,48.0,13.0,30.25,West,271,0.0,8.0,24,0.00,,,0.00,weatherlink.com 1.10,2013-03-14 17:31:00,
2013-03-14 13:47:00,48.9,14.0,30.24,West,271,0.0,10.0,25,0.00,,,0.00,weatherlink.com 1.10,2013-03-14 17:47:00,
2013-03-14 14:17:00,50.1,13.0,30.23,North,355,1.0,4.0,23,0.00,,,0.00,weatherlink.com 1.10,2013-03-14 18:17:00,
2013-03-14 14:32:00,51.6,16.0,30.22,West,277,3.0,6.0,24,0.00,,,0.00,weatherlink.com 1.10,2013-03-14 18:32:00,
2013-03-14 14:47:00,51.3,14.0,30.21,WSW,245,1.0,7.0,23,0.00,,,0.00,weatherlink.com 1.10,2013-03-14 18:47:00,
2013-03-14 15:17:00,51.9,14.0,30.20,SW,218,0.0,6.0,22,0.00,,,0.00,weatherlink.com 1.10,2013-03-14 19:17:00,
2013-03-14 15:32:00,52.5,12.0,30.18,SW,226,1.0,7.0,20,0.00,,,0.00,weatherlink.com 1.10,2013-03-14 19:32:00,
2013-03-14 15:47:00,52.2,13.0,30.18,West,275,2.0,8.0,21,0.00,,,0.00,weatherlink.com 1.10,2013-03-14 19:47:00,
2013-03-14 16:02:00,52.8,14.0,30.18,North,5,2.0,4.0,21,0.00,,,0.00,weatherlink.com 1.10,2013-03-14 20:02:00,
2013-03-14 16:17:00,53.2,12.0,30.18,WNW,296,2.0,5.0,19,0.00,,,0.00,weatherlink.com 1.10,2013-03-14 20:17:00,
2013-03-14 16:32:00,53.1,14.0,30.17,West,267,0.0,5.0,21,0.00,,,0.00,weatherlink.com 1.10,2013-03-14 20:32:00,
2013-03-14 16:47:00,52.3,14.0,30.16,WNW,289,0.0,4.0,22,0.00,,,0.00,weatherlink.com 1.10,2013-03-14 20:47:00,
2013-03-14 17:02:00,51.9,13.0,30.16,SSW,212,0.0,4.0,21,0.00,,,0.00,weatherlink.com 1.10,2013-03-14 21:02:00,
2013-03-14 17:17:00,52.2,14.0,30.15,NW,319,1.0,3.0,22,0.00,,,0.00,weatherlink.com 1.10,2013-03-14 21:17:00,
2013-03-14 17:32:00,51.7,15.0,30.15,NW,304,1.0,5.0,23,0.00,,,0.00,weatherlink.com 1.10,2013-03-14 21:32:00,
2013-03-14 17:47:00,51.4,15.0,30.15,NNW,327,0.0,3.0,23,0.00,,,0.00,weatherlink.com 1.10,2013-03-14 21:47:00,
2013-03-14 18:02:00,51.3,13.0,30.15,West,274,0.0,2.0,22,0.00,,,0.00,weatherlink.com 1.10,2013-03-14 22:02:00,
2013-03-14 18:17:00,51.3,13.0,30.16,ENE,70,0.0,3.0,22,0.00,,,0.00,weatherlink.com 1.10,2013-03-14 22:17:00,
2013-03-14 18:32:00,51.0,14.0,30.16,SE,128,0.0,1.0,23,0.00,,,0.00,weatherlink.com 1.10,2013-03-14 22:32:00,
2013-03-14 18:47:00,50.4,13.0,30.16,NW,325,0.0,3.0,22,0.00,,,0.00,weatherlink.com 1.10,2013-03-14 22:47:00,
2013-03-14 19:02:00,49.9,13.0,30.15,NW,325,0.0,0.0,23,0.00,,,0.00,weatherlink.com 1.10,2013-03-14 23:02:00,
2013-03-14 19:17:00,49.4,17.0,30.15,NW,325,0.0,0.0,27,0.00,,,0.00,weatherlink.com 1.10,2013-03-14 23:17:00,
2013-03-14 19:32:00,48.3,17.0,30.15,NW,325,0.0,0.0,29,0.00,,,0.00,weatherlink.com 1.10,2013-03-14 23:32:00,
2013-03-14 19:47:00,47.3,18.0,30.15,NW,325,0.0,0.0,31,0.00,,,0.00,weatherlink.com 1.10,2013-03-14 23:47:00,
2013-03-14 20:02:00,46.1,17.0,30.15,NW,325,0.0,0.0,31,0.00,,,0.00,weatherlink.com 1.10,2013-03-15 00:02:00,
2013-03-14 20:17:00,44.9,19.0,30.15,NW,325,0.0,0.0,35,0.00,,,0.00,weatherlink.com 1.10,2013-03-15 00:17:00,
2013-03-14 20:32:00,43.9,19.0,30.15,NW,325,0.0,0.0,37,0.00,,,0.00,weatherlink.com 1.10,2013-03-15 00:32:00,
2013-03-14 20:47:00,42.8,20.0,30.16,NW,325,0.0,0.0,41,0.00,,,0.00,weatherlink.com 1.10,2013-03-15 00:47:00,
2013-03-14 21:02:00,41.8,20.0,30.16,NW,325,0.0,0.0,42,0.00,,,0.00,weatherlink.com 1.10,2013-03-15 01:02:00,
2013-03-14 21:17:00,41.1,21.0,30.16,NW,325,0.0,0.0,44,0.00,,,0.00,weatherlink.com 1.10,2013-03-15 01:17:00,
2013-03-14 21:32:00,40.3,22.0,30.16,NW,325,0.0,0.0,49,0.00,,,0.00,weatherlink.com 1.10,2013-03-15 01:32:00,
2013-03-14 21:47:00,39.6,22.0,30.16,NW,325,0.0,0.0,49,0.00,,,0.00,weatherlink.com 1.10,2013-03-15 01:47:00,
2013-03-14 22:02:00,39.6,24.0,30.17,NW,325,0.0,0.0,53,0.00,,,0.00,weatherlink.com 1.10,2013-03-15 02:02:00,
2013-03-14 22:17:00,39.2,24.0,30.18,NW,325,0.0,0.0,55,0.00,,,0.00,weatherlink.com 1.10,2013-03-15 02:17:00,
2013-03-14 22:32:00,38.5,24.0,30.18,NW,325,0.0,0.0,56,0.00,,,0.00,weatherlink.com 1.10,2013-03-15 02:32:00,
2013-03-14 22:47:00,37.8,23.0,30.18,NW,325,0.0,0.0,56,0.00,,,0.00,weatherlink.com 1.10,2013-03-15 02:47:00,
2013-03-14 23:02:00,37.2,22.0,30.18,NW,325,0.0,0.0,55,0.00,,,0.00,weatherlink.com 1.10,2013-03-15 03:02:00,
2013-03-14 23:17:00,36.8,22.0,30.19,NW,325,0.0,0.0,56,0.00,,,0.00,weatherlink.com 1.10,2013-03-15 03:17:00,
2013-03-14 23:32:00,36.8,23.0,30.20,NW,325,0.0,0.0,57,0.00,,,0.00,weatherlink.com 1.10,2013-03-15 03:32:00,
2013-03-14 23:47:00,36.3,23.0,30.19,NW,325,0.0,0.0,59,0.00,,,0.00,weatherlink.com 1.10,2013-03-15 03:47:00,